Simultaneous Nadir Overpasses (SNOs) Predictions

Prediction of SNOs between AQUA and NPP Satellite Orbit:

Table of predicted SNOs for the next 14.0 days since TLE Epoch: 6/15/2018
Index Date (AQUA) Time (AQUA) Lat,Lon (AQUA) SZA (AQUA ) Date (NPP) Time (NPP) Lat,Lon (NPP) SZA (NPP ) Distance(km) Time Diff (sec)
1 06/17/2018 22:38:33 -75.90,-100.84 105.52 06/17/2018 22:38:25 -75.90,-100.84 105.52 0.27 8
2 06/17/2018 23:27:40 76.77, 69.67 73.44 06/17/2018 23:28:50 76.77, 69.63 73.39 1.01 70
3 06/20/2018 14:05:45 75.25,-154.46 75.23 06/20/2018 14:04:47 75.25,-154.41 75.27 1.29 58
4 06/20/2018 14:54:49 -76.43, 16.73 106.16 06/20/2018 14:55:07 -76.44, 16.83 106.20 2.91 18
5 06/23/2018 06:22:09 75.44, -38.05 75.05 06/23/2018 06:21:38 75.43, -38.10 75.09 1.35 31
6 06/23/2018 07:11:14 -76.57, 133.08 106.29 06/23/2018 07:11:59 -76.57, 133.08 106.33 0.19 45
7 06/25/2018 22:38:24 76.06, 79.68 74.40 06/25/2018 22:38:19 76.07, 79.76 74.39 2.26 5
8 06/25/2018 23:27:39 -76.70,-110.58 106.36 06/25/2018 23:28:51 -76.69,-110.66 106.40 2.24 72
9 06/28/2018 14:05:45 -75.17, 25.34 104.43 06/28/2018 14:04:49 -75.17, 25.36 104.39 0.80 56




NCC Satellite Simultaneous Nadir Overpasses (SNOs) Prediction Service
